Regional Weather Roundup
Issued by NWS

Home | Current Version | Previous Version | Graphics & Text | Print | Product List | Glossary On
Versions: 1 2 3 4 5 6 7 8 9 10 11 12 13 14 15 16 17 18 19 20 21 22 23 24 25 26 27 28 29 30 31 32 33 34 35 36 37 38 39 40 41 42 43 44 45 46 47 48 49 50
000
ASUS43 KBIS 270810
RWRND

NORTH DAKOTA REGIONAL WEATHER ROUNDUP
NATIONAL WEATHER SERVICE BISMARCK ND
300 AM CDT MON APR 27 2015

NOTE: "FAIR" INDICATES FEW OR NO CLOUDS BELOW 12,000 FEET WITH NO
SIGNIFICANT WEATHER AND/OR OBSTRUCTIONS TO VISIBILITY.


NDZ001>003-009>011-017-270900-
NORTHWEST NORTH DAKOTA

CITY           SKY/WX    TMP DP  RH WIND       PRES   REMARKS
WILLISTON      LGT RAIN  42  38  85 N7        30.24S
MINOT          LGT RAIN  42  38  85 NW14      30.20R
MINOT AFB      LGT RAIN  42  42 100 NW12      30.20R
$$

NDZ018>021-031>035-040>046-270900-
SOUTHWEST NORTH DAKOTA

CITY           SKY/WX    TMP DP  RH WIND       PRES   REMARKS
BISMARCK       CLOUDY    42  41  96 CALM      30.18S FOG
DICKINSON      LGT RAIN  42  40  92 NW8       30.19R FOG
GARRISON         N/A     45  43  93 CALM      30.18S
HETTINGER ARPT LGT RAIN  42  40  92 N9        30.18F
$$

NDZ004>008-012>016-024-026-027-054-270900-
NORTHEAST NORTH DAKOTA

CITY           SKY/WX    TMP DP  RH WIND       PRES   REMARKS
GRAND FORKS    CLEAR     44  26  49 S3        30.16S
GRND FRKS AFB  PTCLDY    35  30  81 W5        30.16R
DEVILS LAKE    CLOUDY    39  36  87 NW3       30.17R VSB 1
$$

NDZ022-023-025-028>030-036>039-047>053-270900-
SOUTHEAST NORTH DAKOTA

CITY           SKY/WX    TMP DP  RH WIND       PRES   REMARKS
FARGO          CLEAR     41  26  55 S8        30.17R
JAMESTOWN      MOCLDY    40  31  70 CALM      30.17S
$$



USA.gov is the U.S. government's official web portal to all federal, state and local government web resources and services.